When you browse on this site, cookies collect data to enhance your experience and personalize the content and advertising you see.
Visit our Privacy Policy to learn more. By continuing to use the site, you agree to this use of cookies and data.
  • In Deutschland
  • Länderverzeichnis
  • Für 7 Tage
  • Wassertemperatur
  • Satellitenkarten
  • Wetterkarte
  • Widgets
  • user-avatar
    Anmelden

    Stündliche Wetter Pocitelj

    Heute, 18 Januar, Freitag

    Zeit Temperatur Niederschläge Wind Luftdruck Luftfeuchtigkeit
    00:00 +5°C° 0.1 mm 3 m/S 748 mmHg 86%
    01:00 +6°C° 0 mm 2 m/S 747 mmHg 89%
    02:00 +5°C° 0.2 mm 3 m/S 747 mmHg 88%
    03:00 +7°C° 0.2 mm 3 m/S 746 mmHg 88%
    04:00 +6°C° 0.2 mm 4 m/S 746 mmHg 88%
    05:00 +6°C° 0.1 mm 4 m/S 746 mmHg 88%
    06:00 +6°C° 0.1 mm 4 m/S 746 mmHg 88%
    07:00 +6°C° 0 mm 5 m/S 745 mmHg 89%
    08:00 +7°C° 0.3 mm 5 m/S 745 mmHg 89%
    09:00 +7°C° 0.3 mm 4 m/S 745 mmHg 89%
    10:00 +8°C° 0.3 mm 4 m/S 745 mmHg 89%
    11:00 +8°C° 0.8 mm 4 m/S 745 mmHg 87%
    12:00 +10°C° 0.8 mm 4 m/S 745 mmHg 85%
    13:00 +10°C° 0.8 mm 4 m/S 745 mmHg 84%
    14:00 +10°C° 0.6 mm 3 m/S 746 mmHg 86%
    15:00 +9°C° 0.6 mm 3 m/S 746 mmHg 87%
    16:00 +9°C° 0.6 mm 2 m/S 746 mmHg 89%
    17:00 +8°C° 0.2 mm 2 m/S 746 mmHg 89%
    18:00 +8°C° 0.2 mm 2 m/S 747 mmHg 89%
    19:00 +7°C° 0.2 mm 2 m/S 747 mmHg 90%
    20:00 +7°C° 0.2 mm 2 m/S 747 mmHg 89%
    21:00 +7°C° 0.2 mm 2 m/S 748 mmHg 87%
    22:00 +6°C° 0.2 mm 2 m/S 748 mmHg 86%
    23:00 +6°C° 0.1 mm 2 m/S 748 mmHg 85%

    Morgen, 19 Januar, Samstag

    Zeit Temperatur Niederschläge Wind Luftdruck Luftfeuchtigkeit
    00:00 +6°C° 0.1 mm 2 m/S 748 mmHg 84%
    01:00 +5°C° 0.1 mm 2 m/S 748 mmHg 83%
    02:00 +5°C° 0 mm 2 m/S 748 mmHg 82%
    03:00 +5°C° 0 mm 2 m/S 748 mmHg 82%
    04:00 +5°C° 0 mm 2 m/S 747 mmHg 81%
    05:00 +5°C° 0 mm 2 m/S 747 mmHg 81%
    06:00 +4°C° 0 mm 2 m/S 747 mmHg 81%
    07:00 +4°C° 0 mm 2 m/S 747 mmHg 81%
    08:00 +5°C° 0.2 mm 2 m/S 747 mmHg 82%
    09:00 +6°C° 0.2 mm 2 m/S 747 mmHg 83%
    10:00 +7°C° 0.2 mm 2 m/S 747 mmHg 83%
    11:00 +8°C° 0.5 mm 2 m/S 747 mmHg 85%
    12:00 +8°C° 0.5 mm 2 m/S 747 mmHg 87%
    13:00 +8°C° 0.5 mm 2 m/S 746 mmHg 88%
    14:00 +8°C° 0.2 mm 2 m/S 746 mmHg 89%
    15:00 +8°C° 0.2 mm 2 m/S 746 mmHg 90%
    16:00 +8°C° 0.2 mm 2 m/S 746 mmHg 91%
    17:00 +8°C° 0.7 mm 2 m/S 746 mmHg 92%
    18:00 +8°C° 0.7 mm 2 m/S 746 mmHg 93%
    19:00 +7°C° 0.7 mm 2 m/S 746 mmHg 95%
    20:00 +7°C° 0.8 mm 2 m/S 746 mmHg 95%
    21:00 +7°C° 0.8 mm 2 m/S 746 mmHg 95%
    22:00 +7°C° 0.8 mm 2 m/S 746 mmHg 94%
    23:00 +7°C° 0.9 mm 2 m/S 746 mmHg 94%

    übermorgen, 20 Januar, Sonntag

    Zeit Temperatur Niederschläge Wind Luftdruck Luftfeuchtigkeit
    00:00 +7°C° 0.9 mm 2 m/S 746 mmHg 94%
    01:00 +8°C° 0.9 mm 2 m/S 745 mmHg 94%
    02:00 +7°C° 1.3 mm 2 m/S 745 mmHg 95%
    03:00 +7°C° 1.3 mm 2 m/S 745 mmHg 95%
    04:00 +8°C° 1.3 mm 1 m/S 745 mmHg 95%
    05:00 +8°C° 0.2 mm 1 m/S 745 mmHg 95%
    06:00 +8°C° 0.2 mm 1 m/S 745 mmHg 94%
    07:00 +7°C° 0.2 mm 1 m/S 746 mmHg 94%
    08:00 +8°C° 0.1 mm 1 m/S 746 mmHg 90%
    09:00 +9°C° 0.1 mm 1 m/S 746 mmHg 87%
    10:00 +10°C° 0.1 mm 1 m/S 746 mmHg 83%
    11:00 +10°C° 0.1 mm 1 m/S 746 mmHg 78%
    12:00 +10°C° 0.1 mm 0 m/S 746 mmHg 73%
    13:00 +10°C° 0.1 mm 0 m/S 746 mmHg 68%
    14:00 +10°C° 0.1 mm 0 m/S 746 mmHg 71%
    15:00 +9°C° 0.1 mm 0 m/S 746 mmHg 73%
    16:00 +9°C° 0.1 mm 0 m/S 746 mmHg 76%
    17:00 +8°C° 0 mm 0 m/S 746 mmHg 78%
    18:00 +8°C° 0 mm 1 m/S 747 mmHg 80%
    19:00 +7°C° 0 mm 1 m/S 747 mmHg 82%
    20:00 +6°C° 0 mm 1 m/S 747 mmHg 83%
    21:00 +6°C° 0 mm 1 m/S 748 mmHg 83%
    22:00 +5°C° 0 mm 2 m/S 748 mmHg 84%
    23:00 +5°C° 0 mm 2 m/S 748 mmHg 84%

    21 Januar, Montag

    Zeit Temperatur Niederschläge Wind Luftdruck Luftfeuchtigkeit
    00:00 +4°C° 0 mm 2 m/S 748 mmHg 83%
    01:00 +4°C° 0 mm 2 m/S 748 mmHg 82%
    02:00 +4°C° 0 mm 2 m/S 748 mmHg 81%
    03:00 +4°C° 0 mm 2 m/S 748 mmHg 80%
    04:00 +4°C° 0 mm 2 m/S 748 mmHg 79%
    05:00 +3°C° 0 mm 2 m/S 748 mmHg 78%
    06:00 +3°C° 0 mm 2 m/S 749 mmHg 78%
    07:00 +3°C° 0 mm 2 m/S 749 mmHg 77%
    08:00 +4°C° 0 mm 2 m/S 749 mmHg 74%
    09:00 +5°C° 0 mm 2 m/S 749 mmHg 71%
    10:00 +6°C° 0 mm 2 m/S 749 mmHg 69%
    11:00 +7°C° 0 mm 2 m/S 749 mmHg 67%
    12:00 +8°C° 0 mm 2 m/S 749 mmHg 66%
    13:00 +9°C° 0 mm 2 m/S 749 mmHg 65%
    14:00 +8°C° 0 mm 2 m/S 749 mmHg 67%
    15:00 +8°C° 0 mm 2 m/S 749 mmHg 70%
    16:00 +7°C° 0 mm 2 m/S 749 mmHg 73%
    17:00 +7°C° 0 mm 2 m/S 749 mmHg 75%
    18:00 +6°C° 0 mm 2 m/S 749 mmHg 76%
    19:00 +5°C° 0 mm 2 m/S 749 mmHg 78%
    20:00 +5°C° 0 mm 2 m/S 750 mmHg 78%
    21:00 +5°C° 0 mm 2 m/S 750 mmHg 77%
    22:00 +3°C° 0 mm 3 m/S 750 mmHg 77%
    23:00 +3°C° 0.1 mm 3 m/S 750 mmHg 77%

    22 Januar, Dienstag

    Zeit Temperatur Niederschläge Wind Luftdruck Luftfeuchtigkeit
    00:00 +4°C° 0.1 mm 2 m/S 749 mmHg 77%
    01:00 +4°C° 0.1 mm 2 m/S 749 mmHg 77%
    02:00 +4°C° 0.2 mm 2 m/S 749 mmHg 77%
    03:00 +4°C° 0.2 mm 2 m/S 748 mmHg 78%
    04:00 +4°C° 0.2 mm 2 m/S 748 mmHg 79%
    05:00 +4°C° 0.6 mm 2 m/S 747 mmHg 80%
    06:00 +4°C° 0.6 mm 2 m/S 747 mmHg 81%
    07:00 +3°C° 0.6 mm 3 m/S 747 mmHg 82%
    08:00 +4°C° 1 mm 2 m/S 746 mmHg 83%
    09:00 +4°C° 1 mm 2 m/S 746 mmHg 84%
    10:00 +5°C° 1 mm 2 m/S 745 mmHg 85%
    11:00 +5°C° 0.8 mm 2 m/S 745 mmHg 86%
    12:00 +5°C° 0.8 mm 2 m/S 744 mmHg 86%
    13:00 +6°C° 0.8 mm 2 m/S 743 mmHg 87%
    14:00 +6°C° 0.5 mm 2 m/S 742 mmHg 87%
    15:00 +6°C° 0.5 mm 2 m/S 742 mmHg 87%
    16:00 +6°C° 0.5 mm 2 m/S 741 mmHg 87%
    17:00 +6°C° 0.1 mm 2 m/S 740 mmHg 86%
    18:00 +6°C° 0.1 mm 2 m/S 740 mmHg 85%
    19:00 +6°C° 0.1 mm 2 m/S 739 mmHg 84%
    20:00 +6°C° 0.1 mm 2 m/S 739 mmHg 84%
    21:00 +7°C° 0.1 mm 1 m/S 738 mmHg 84%
    22:00 +7°C° 0.1 mm 1 m/S 738 mmHg 84%
    23:00 +7°C° 0.2 mm 1 m/S 737 mmHg 85%

    23 Januar, Mittwoch

    Zeit Temperatur Niederschläge Wind Luftdruck Luftfeuchtigkeit
    00:00 +6°C° 0.2 mm 2 m/S 736 mmHg 86%
    01:00 +6°C° 0.2 mm 2 m/S 735 mmHg 87%
    02:00 +6°C° 0.2 mm 2 m/S 734 mmHg 87%
    03:00 +6°C° 0.2 mm 2 m/S 733 mmHg 87%
    04:00 +6°C° 0.2 mm 2 m/S 733 mmHg 87%
    05:00 +6°C° 0.5 mm 2 m/S 732 mmHg 89%
    06:00 +6°C° 0.5 mm 2 m/S 732 mmHg 90%
    07:00 +7°C° 0.5 mm 2 m/S 731 mmHg 92%
    08:00 +7°C° 0.9 mm 2 m/S 731 mmHg 92%
    09:00 +7°C° 0.9 mm 3 m/S 731 mmHg 93%
    10:00 +7°C° 0.9 mm 3 m/S 730 mmHg 94%
    11:00 +8°C° 1.8 mm 3 m/S 730 mmHg 93%
    12:00 +7°C° 1.8 mm 4 m/S 729 mmHg 93%
    13:00 +7°C° 1.8 mm 4 m/S 728 mmHg 93%
    14:00 +7°C° 0.7 mm 4 m/S 728 mmHg 91%
    15:00 +7°C° 0.7 mm 4 m/S 727 mmHg 88%
    16:00 +7°C° 0.7 mm 4 m/S 727 mmHg 86%
    17:00 +7°C° 3.2 mm 5 m/S 726 mmHg 88%
    18:00 +5°C° 3.2 mm 6 m/S 726 mmHg 91%
    19:00 +5°C° 3.2 mm 7 m/S 726 mmHg 93%
    20:00 +5°C° 2 mm 6 m/S 725 mmHg 89%
    21:00 +6°C° 2 mm 5 m/S 725 mmHg 85%
    22:00 +6°C° 2 mm 4 m/S 725 mmHg 81%
    23:00 +5°C° 0.5 mm 6 m/S 724 mmHg 81%
    Mehr zeigen